User: anonymous   Login
Location: Newark
(37.9800°N, 91.3000°W)
Time: 00:32:22
(UTC+00:00)
Language:

NOAA 19 - Orbit

View from above orbital plane
View from above orbital plane
View from above satellite
View from above satellite

Ground track
Ground track

The orbit data is extracted from the following two-line orbital elements,

1 33591U 09005A   21021.77555869  .00000010  00000-0  31018-4 0  9991
2 33591  99.1929  38.7745 0013962 180.2241 179.8926 14.12449337616211
Epoch (UTC): 21 January 2021 18:36:48
Eccentricity: 0.0013962
inclination: 99.1929°
perigee height: 841 km
apogee height: 861 km
right ascension of ascending node: 38.7745°
argument of perigee: 180.2241°
revolutions per day: 14.12449337
mean anomaly at epoch: 179.8926°
orbit number at epoch: 61621

The dashed part of the orbit path shows where the satellite is in the earth's shadow,  

DLR